KBKFKEGE

Guest
Details From KBKF - BUCKLEY AFB
To KEGE - EAGLE CO RGNL
Flight Number -
Tags generated
Created
Modified
Stats Distance 100 nm / 186 km
Max Altitude 2,100 ft / 640 m
Waypoints 3
Social Downloads 0
Likes 0
Share VATSIM

Download

Looking for another format? Having issues loading an existing format? Contact us
Advertisement - Login to hide

Notes

Basic altitude profile: - Ascent Rate: 2500ft/min - Ascent Speed: 250kts - Cruise Altitude: 35000ft - Cruise Speed: 420kts - Descent Rate: 1500ft/min - Descent Speed: 250kts Options: - Use NATs: yes - Use PACOTS: yes - Use low airways: yes - Use high airways: yes

Route

KBKF VAILE KEGE

ID Type Via Altitude Latitude Longitude Leg Dist Tot Dist Heading (true) Name
O KBKF APT - 0 ft / 0 m 39.70176˚ -104.75196˚ - 0 nm - BUCKLEY AFB
VAILE FIX - 2,100 ft / 640 m 39.67293˚ -106.70824˚ 90 nm 90 nm 270° / 268° -
O KEGE APT - 0 ft / 0 m 39.64257˚ -106.91770˚ 9 nm 100 nm 259° / 259° EAGLE CO RGNL

Altitude Profile

Advertisement - Login to hide

KBKF

Details ICAO KBKF (BKF)
Name BUCKLEY AFB
Region United States
Timezone America/Denver (UTC-7.0)
Stats Elevation 5,662 ft / 1,726 m (AMSL)
Location 39.701758° -104.751961°
Runways 1
Magnetic Variation 8.088° E

METAR

KBKF 182158Z 01004KT 10SM FEW130 BKN220 13/M07 A2993 RMK AO2A SLP130 T01331074

Decode

TAF

Not found

Departure Runways

ID Width Length Bearing (true) Bearing (mag) Surface Threshold Offset Overrun Length
14 150 ft / 46 m 11,015 ft / 3,357 m 151.17° 143.08° Asphalt 0 ft / 0 m 750 ft / 229 m
32 150 ft / 46 m 11,015 ft / 3,357 m 331.18° 323.09° Asphalt 0 ft / 0 m 1,000 ft / 305 m

KEGE

Details ICAO KEGE (EGE)
Name EAGLE CO RGNL
Region United States
Timezone America/Denver (UTC-7.0)
Stats Elevation 6,540 ft / 1,993 m (AMSL)
Location 39.642567° -106.917696°
Runways 1
Magnetic Variation 9.164° E

METAR

KEGE 182156Z 00000KT 10SM CLR 01/M12 A3021 RMK AO2 SLP292 T00111117

Decode

TAF

KEGE 181736Z 1818/1918 VRB04KT P6SM SCT120 BKN200

Decode

Destination Runways

ID Width Length Bearing (true) Bearing (mag) Surface Threshold Offset Overrun Length
07 150 ft / 46 m 7,981 ft / 2,433 m 81.90° 72.74° Asphalt 0 ft / 0 m 0 ft / 0 m
25 150 ft / 46 m 7,981 ft / 2,433 m 261.92° 252.76° Asphalt 0 ft / 0 m 0 ft / 0 m

Approach Navaids

Runway Type Ident Frequency Range Bearing (true) Bearing (mag) Slope Elevation
25 Localiser IESJ 109.75 MHz 18 nm / 33 km 258.91° 249.75° - 6,461 ft / 1,969 m (AMSL)
25 DME IESJ 109.75 MHz 18 nm / 33 km - - - 6,473 ft / 1,973 m (AMSL)

Popular Alternatives